FW8891 Weather Reports


Display with metric or nautical units.
time (UTC)temp
F
wind
direction
speed
MPH
gust
MPH
rain 1hr
in
rain 24hr
in
rain mn
in
humidity
%
barometer
mb
20260504190558 75 208 6.0 15.0 0.00 0.00 0.00 40 1013.5
20260504190111 75 159 5.0 9.0 0.00 0.00 0.00 40 1013.4
20260504185602 75 201 4.0 9.0 0.00 0.00 0.00 40 1013.2
20260504185059 75 178 3.0 10.0 0.00 0.00 0.00 40 1013.1
20260504184614 75 212 7.0 10.0 0.00 0.00 0.00 39 1013.6
20260504184059 75 229 3.0 8.0 0.00 0.00 0.00 41 1013.3
20260504183559 75 116 4.0 11.0 0.00 0.00 0.00 41 1013.5
20260504183101 75 117 6.0 11.0 0.00 0.00 0.00 41 1013.9
20260504182558 75 238 5.0 11.0 0.00 0.00 0.00 41 1014.0
20260504182058 75 226 6.0 10.0 0.00 0.00 0.00 40 1013.8
20260504181559 74 186 3.0 7.0 0.00 0.00 0.00 43 1014.1
20260504181059 74 186 1.0 9.0 0.00 0.00 0.00 44 1013.8
20260504180558 73 221 3.0 10.0 0.00 0.00 0.00 45 1013.7
20260504180058 73 159 2.0 10.0 0.00 0.00 0.00 46 1013.7
20260504175558 73 141 4.0 10.0 0.00 0.00 0.00 45 1013.9
20260504175059 73 216 4.0 8.0 0.00 0.00 0.00 46 1014.0
20260504174609 73 189 3.0 8.0 0.00 0.00 0.00 47 1013.9
20260504174059 73 123 3.0 8.0 0.00 0.00 0.00 46 1013.8
20260504173558 73 169 4.0 10.0 0.00 0.00 0.00 46 1013.8
20260504173105 73 187 3.0 10.0 0.00 0.00 0.00 46 1013.8
20260504172558 72 229 5.0 10.0 0.00 0.00 0.00 47 1013.8
20260504172059 72 230 3.0 9.0 0.00 0.00 0.00 48 1013.6
20260504171557 72 164 5.0 9.0 0.00 0.00 0.00 48 1013.4
20260504171101 72 133 5.0 9.0 0.00 0.00 0.00 47 1013.0
20260504170559 72 145 4.0 8.0 0.00 0.00 0.00 47 1012.9
20260504151059 71 200 6.0 8.0 0.00 0.00 0.00 50 1013.2
20260504150601 71 246 4.0 7.0 0.00 0.00 0.00 49 1013.0
20260504141058 70 183 3.0 6.0 0.00 0.00 0.00 47 1012.5
20260504140558 70 207 2.0 6.0 0.00 0.00 0.00 47 1012.3
20260504130558 70 132 1.0 4.0 0.00 0.00 0.00 47 1012.0
20260504110559 69 0 0.0 0.0 0.00 0.00 0.00 45 1011.3
20260504100559 73 150 4.0 8.0 0.00 0.00 0.00 41 1011.5
20260504081606 74 0 0.0 2.0 0.00 0.00 0.00 40 1011.0
20260504081101 74 253 0.0 2.0 0.00 0.00 0.00 40 1011.0
20260504080559 74 186 0.0 4.0 0.00 0.00 0.00 39 1011.0
20260504050558 79 149 4.0 15.0 0.00 0.00 0.00 29 1010.4
20260504050107 79 184 7.0 16.0 0.00 0.00 0.00 29 1010.4
20260504045558 79 209 8.0 16.0 0.00 0.00 0.00 29 1010.3
20260504045058 80 164 9.0 18.0 0.00 0.00 0.00 29 1010.3
20260504044604 80 227 9.0 18.0 0.00 0.00 0.00 29 1010.3
20260504044058 80 190 6.0 16.0 0.00 0.00 0.00 28 1010.3
20260504043558 80 186 10.0 16.0 0.00 0.00 0.00 28 1010.2
20260504043102 80 226 8.0 14.0 0.00 0.00 0.00 27 1010.1
20260504042559 80 163 6.0 12.0 0.00 0.00 0.00 26 1010.1
20260504042100 80 217 7.0 12.0 0.00 0.00 0.00 26 1010.1
20260504041557 80 219 5.0 12.0 0.00 0.00 0.00 25 1010.3
20260504041058 81 207 5.0 12.0 0.00 0.00 0.00 25 1010.2
20260504040558 81 215 6.0 12.0 0.00 0.00 0.00 24 1009.9
20260504040106 81 233 5.0 15.0 0.00 0.00 0.00 24 1009.9
20260504035559 81 210 7.0 15.0 0.00 0.00 0.00 24 1009.8
20260504035059 81 164 6.0 10.0 0.00 0.00 0.00 24 1009.7
20260504034621 81 252 5.0 12.0 0.00 0.00 0.00 24 1009.7
20260504034059 82 188 5.0 12.0 0.00 0.00 0.00 23 1009.4
20260504033602 82 231 5.0 15.0 0.00 0.00 0.00 23 1009.4
20260504033127 82 307 7.0 15.0 0.00 0.00 0.00 23 1009.2
20260504032559 82 150 5.0 13.0 0.00 0.00 0.00 23 1009.0
20260504032102 82 242 7.0 13.0 0.00 0.00 0.00 22 1008.9
20260504031604 83 219 5.0 11.0 0.00 0.00 0.00 22 1008.9
20260504031058 83 236 5.0 11.0 0.00 0.00 0.00 22 1009.0
20260504030558 83 205 6.0 12.0 0.00 0.00 0.00 22 1008.7
20260504030105 83 255 5.0 12.0 0.00 0.00 0.00 22 1008.6
20260504025558 84 205 6.0 12.0 0.00 0.00 0.00 21 1008.5
20260504025058 84 257 5.0 11.0 0.00 0.00 0.00 21 1008.4
20260504024603 84 260 5.0 12.0 0.00 0.00 0.00 21 1008.3
20260504024104 84 223 6.0 12.0 0.00 0.00 0.00 21 1008.2
20260504023559 84 350 6.0 14.0 0.00 0.00 0.00 21 1008.3
20260504023104 85 236 7.0 14.0 0.00 0.00 0.00 21 1008.2
20260504022559 85 282 6.0 14.0 0.00 0.00 0.00 20 1008.3
20260504022100 85 214 7.0 15.0 0.00 0.00 0.00 21 1008.0
20260504021559 85 209 7.0 15.0 0.00 0.00 0.00 21 1008.1
20260504021058 86 215 6.0 13.0 0.00 0.00 0.00 21 1008.0
20260504020558 86 195 6.0 14.0 0.00 0.00 0.00 21 1007.8
20260504020100 86 162 7.0 14.0 0.00 0.00 0.00 21 1007.7
20260504015559 87 200 8.0 15.0 0.00 0.00 0.00 21 1007.7
20260504015103 87 210 8.0 15.0 0.00 0.00 0.00 20 1007.5
20260504014601 88 191 9.0 16.0 0.00 0.00 0.00 20 1007.5
20260504014058 88 179 9.0 16.0 0.00 0.00 0.00 19 1007.5
20260504013558 88 185 8.0 17.0 0.00 0.00 0.00 19 1007.4
20260504013110 88 146 10.0 18.0 0.00 0.00 0.00 19 1007.3
20260504012601 88 134 10.0 18.0 0.00 0.00 0.00 19 1007.2
20260504012102 89 187 9.0 17.0 0.00 0.00 0.00 19 1007.1
20260504011600 89 211 10.0 17.0 0.00 0.00 0.00 19 1007.2
20260504011058 90 196 8.0 17.0 0.00 0.00 0.00 18 1007.2
20260504010558 90 221 10.0 17.0 0.00 0.00 0.00 18 1007.1
20260504010113 90 234 7.0 19.0 0.00 0.00 0.00 18 1007.2
20260504005601 90 148 11.0 19.0 0.00 0.00 0.00 18 1007.2
20260504005059 91 184 12.0 18.0 0.00 0.00 0.00 17 1007.2
20260504004625 91 207 11.0 18.0 0.00 0.00 0.00 17 1007.2
20260504004059 92 248 9.0 18.0 0.00 0.00 0.00 17 1007.2
20260504003603 92 183 10.0 18.0 0.00 0.00 0.00 17 1007.3
20260504003100 92 134 7.0 16.0 0.00 0.00 0.00 17 1007.2
20260504002558 93 210 7.0 15.0 0.00 0.00 0.00 17 1007.2
20260504002059 93 175 9.0 15.0 0.00 0.00 0.00 17 1007.1
20260504001612 93 238 9.0 17.0 0.00 0.00 0.00 17 1007.3
20260504001059 93 257 7.0 17.0 0.00 0.00 0.00 16 1007.1
20260504000559 93 314 8.0 17.0 0.00 0.00 0.00 16 1007.1
20260504000100 94 238 7.0 17.0 0.00 0.00 0.00 17 1007.2
20260503235559 94 194 9.0 16.0 0.00 0.00 0.00 16 1007.2
20260503235059 94 165 9.0 16.0 0.00 0.00 0.00 17 1007.2
20260503234557 94 191 8.0 14.0 0.00 0.00 0.00 16 1007.1
20260503234059 94 214 6.0 13.0 0.00 0.00 0.00 16 1007.1
20260503233559 94 243 4.0 11.0 0.00 0.00 0.00 16 1007.0
20260503233100 94 205 6.0 11.0 0.00 0.00 0.00 16 1007.0
20260503232558 94 164 6.0 11.0 0.00 0.00 0.00 16 1007.0
20260503232058 94 219 5.0 11.0 0.00 0.00 0.00 16 1007.0
20260503231559 94 212 5.0 16.0 0.00 0.00 0.00 16 1007.2
20260503231058 94 204 5.0 16.0 0.00 0.00 0.00 16 1007.3
20260503230559 94 206 9.0 16.0 0.00 0.00 0.00 16 1007.4
20260503225602 94 165 3.0 13.0 0.00 0.00 0.00 16 1007.5
20260503225059 95 197 7.0 13.0 0.00 0.00 0.00 16 1007.7
20260503224559 94 87 4.0 15.0 0.00 0.00 0.00 17 1007.7
20260503224059 95 255 6.0 15.0 0.00 0.00 0.00 16 1007.8
20260503223559 95 160 6.0 15.0 0.00 0.00 0.00 16 1007.8
20260503223100 95 318 8.0 14.0 0.00 0.00 0.00 16 1008.0
20260503222558 95 224 4.0 11.0 0.00 0.00 0.00 16 1007.9
20260503222058 95 267 4.0 12.0 0.00 0.00 0.00 16 1008.1
20260503221602 95 246 5.0 12.0 0.00 0.00 0.00 16 1008.1
20260503221058 95 225 6.0 11.0 0.00 0.00 0.00 17 1008.2
20260503220559 94 228 0.0 6.0 0.00 0.00 0.00 18 1008.4
20260503220058 95 27 2.0 6.0 0.00 0.00 0.00 17 1008.5
20260503215558 94 294 0.0 8.0 0.00 0.00 0.00 18 1008.6
20260503215058 94 139 3.0 13.0 0.00 0.00 0.00 18 1008.8
20260503214601 94 255 4.0 13.0 0.00 0.00 0.00 18 1008.9
20260503214103 95 234 6.0 13.0 0.00 0.00 0.00 18 1009.0
20260503213558 95 238 6.0 12.0 0.00 0.00 0.00 18 1009.0
20260503213111 95 258 6.0 13.0 0.00 0.00 0.00 18 1008.9
20260503212600 96 193 3.0 13.0 0.00 0.00 0.00 17 1009.0
20260503212059 95 250 3.0 10.0 0.00 0.00 0.00 19 1009.1
20260503211601 95 226 4.0 11.0 0.00 0.00 0.00 19 1009.2
20260503211102 95 232 5.0 11.0 0.00 0.00 0.00 19 1009.3
20260503210603 95 237 5.0 11.0 0.00 0.00 0.00 20 1009.3
20260503210109 94 212 3.0 10.0 0.00 0.00 0.00 21 1009.4
20260503205559 93 93 2.0 10.0 0.00 0.00 0.00 20 1009.4
20260503205059 93 143 5.0 10.0 0.00 0.00 0.00 20 1009.5
20260503204608 93 115 1.0 7.0 0.00 0.00 0.00 21 1009.7
20260503204058 94 136 3.0 10.0 0.00 0.00 0.00 21 1009.9
20260503203600 93 167 3.0 11.0 0.00 0.00 0.00 22 1010.0
20260503203105 93 158 5.0 12.0 0.00 0.00 0.00 22 1010.0
20260503202600 92 150 7.0 12.0 0.00 0.00 0.00 22 1009.9
20260503202101 92 215 6.0 13.0 0.00 0.00 0.00 22 1010.0
20260503201604 93 154 4.0 13.0 0.00 0.00 0.00 22 1010.1
20260503201058 93 113 5.0 13.0 0.00 0.00 0.00 22 1010.2
20260503200558 93 134 5.0 11.0 0.00 0.00 0.00 22 1010.3
20260503195559 93 150 5.0 14.0 0.00 0.00 0.00 22 1010.4
20260503195059 93 181 5.0 14.0 0.00 0.00 0.00 21 1010.6
20260503194600 93 110 8.0 14.0 0.00 0.00 0.00 21 1010.7
20260503194059 91 172 4.0 13.0 0.00 0.00 0.00 21 1010.7
20260503193559 92 134 7.0 13.0 0.00 0.00 0.00 22 1010.8
20260503193101 91 128 5.0 14.0 0.00 0.00 0.00 23 1010.8
20260503192558 91 104 6.0 14.0 0.00 0.00 0.00 23 1010.9
20260503192059 91 135 7.0 13.0 0.00 0.00 0.00 23 1011.0
20260503191634 91 103 6.0 12.0 0.00 0.00 0.00 22 1011.1
20260503191059 90 140 5.0 15.0 0.00 0.00 0.00 24 1011.2